Other Surface Observations
Issued by NWS

Home | Current Version | Previous Version | Text Only | Print | Product List | Glossary On
Versions: 1 2 3 4 5 6 7 8 9 10 11 12 13 14 15 16 17 18 19 20 21 22 23 24 25 26 27 28 29 30 31 32 33 34 35 36 37 38 39 40 41 42 43 44 45 46 47 48 49 50
000
SXUS52 KTAE 301119
OSOTAE
OSOTAE
North Florida/South Alabama/Southwest Georgia Weather Roundup
National Weather Service Tallahassee Florida
700 AM EDT THU JUL 30 2015

Note: "fair" indicates few or no clouds below 12,000 feet with no
significant weather and/or obstructions to visibility.

!FLZ017-115-028-034-025-301200
...North Florida...

CITY           SKY/WX    TMP DP  RH WIND       PRES   REMARKS
TALLAHASSEE    CLOUDY    77  75  93 CALM      29.94S
APALACHICOLA   PTCLDY    81  77  88 CALM      29.93S
PERRY          PTCLDY    74  74 100 CALM      29.95F
CROSS CITY       N/A     75  73  93 CALM      29.95R
JACKSONVILLE   FOG       73  73 100 SW5       29.94R VSB 1
$$

!FLZ112-006-005-002-011-301200
...Florida Panhandle...

CITY           SKY/WX    TMP DP  RH WIND       PRES   REMARKS
MARIANNA       CLEAR     76  76 100 CALM      29.93R
BONIFAY        FAIR      75  75 100 CALM      29.93F
PANAMA CITY NW FAIR      77  75  93 CALM      29.92S FOG
TYNDALL AFB    MOCLDY    79  77  94 CALM      29.93S
TYND DRONE APT FAIR      79  79 100 CALM      29.93R FOG
DE FUNIAK SPR  FAIR      75  74  99 NW3       29.95S
EGLIN AFB      MOCLDY    77  74  92 W1        29.94S
DESTIN         PTCLDY    79  76  90 NW6       29.94R
HURLBURT       PTCLDY    77  73  89 W3        29.93R
CRESTVIEW      CLEAR     76  76 100 NW5       29.96R
PENSACOLA      CLEAR     77  74  90 NW8       29.95R
$$

!ALZ063-066-301200
...South Alabama...

CITY           SKY/WX    TMP DP  RH WIND       PRES   REMARKS
DOTHAN         PTCLDY    76  75  97 CALM      29.97R
OZARK CAIRNS   PTCLDY    76  76 100 CALM      29.93R
FT RUCKER HELI PTCLDY    77  74  90 CALM      29.93R FOG
RUCKER HELI 3  FAIR      76  74  96 NW3       29.95R FOG
RUCKER HELI 2  FAIR      75  32  20 CALM      29.93R HAZE
FLORALA APT    PTCLDY    74  72  93 CALM      29.96S FOG
ANDALUSIA      MOCLDY    79  74  84 NW5       29.94R
TROY           PTCLDY    77  75  93 CALM      29.95R
EUFALA         FAIR      77  75  93 CALM      29.93R FOG
MOBILE         PTCLDY    76  75  97 NW6       29.98R
$$

!GAZ120>161-301200
...Southwest and South Central Georgia...

CITY           SKY/WX    TMP DP  RH WIND       PRES   REMARKS
THOMASVILLE    FAIR      73  73 100 SE3       29.95S FOG
BAINBRIDGE     FOG       79  77  94 S3        29.94S VSB 3/4
MOODY AFB      CLOUDY    75  74  94 S1        29.94S
VALDOSTA       MOCLDY    75  75 100 CALM      29.95R FOG
MOULTRIE       MOCLDY    73  73 100 S3        29.95S FOG
BLAKELY        CLOUDY    77  77 100 CALM      29.94S FOG
ALBANY         CLOUDY    76  75  97 SW3       29.96R FOG
TIFTON         CLOUDY    76  75  99 SW3       29.95R FOG
FITZGERALD     FAIR      77  75  96 CALM      29.97R FOG
CORDELE        FAIR      78  76  95 W3        29.95R
AMERICUS       FOG       73  73 100 CALM      29.96R VSB 1
HOMERVILLE     FOG       77  77 100 S3        29.95S VSB 3/4
$$

!GMZ750-755-770-775-301200
...Coastal and Buoy Obs...

STATION/POSITION TIME  TEMP    WIND        PRES    VSBY  WAVE
                       AIR SEA DIR/SP/G                  HT/PER
                 (UTC) (F)     (DEG/KT/KT) (MB)    (MI)  (FT/S)
KEATON BEACH     1100   76      80/  4/  5 1014.2S
CEDAR KEY        1100   78      30/  3/  4 1014.6R
C TOWER          1100   83     250/ 10/ 11 1013.7S
APALACHICOLA BUO 1050   84 85  240/  8/ 10 1014.1R         2/ 4
PANAMA CITY BUOY 1050   83 87  320/ 10/ 12 1014.5R         2/ 4
MOBILE BUOY      1050   85 87   30/ 10/ 12 1015.1R         2/ 3
ORANGE BCH AL BU 1050   82 84  340/  8/ 10 1013.6R         1/ 3
$$



USA.gov is the U.S. government's official web portal to all federal, state and local government web resources and services.